Location: *
(58.4167°N, 22.5000°E)
Time: 01:12:52
(UTC+00:00)

Cosmos 1844 - Pass Details

Date: 22 September 2019
Orbit: 821 x 869 km, 70.9° (Epoch: 19 October)

Event Time Altitude Azimuth Distance (km) Brightness Sun altitude
Exits shadow 22:15:56 46° 54° (NE) 1,134 4.4 -31.4°
Drops below altitude 10° 22:19:59 10° 40° (NE) 2,505 6.7 -31.4°
Sets 22:22:28 0° 38° (NE) 3,451 7.6 -31.4°
